Regional Weather Roundup
Issued by NWS Upton, NY

Current Version | Previous Version | Graphics & Text | Print | Product List | Glossary Off
Versions: 1 2 3 4 5 6 7 8 9 10 11 12 13 14 15 16 17 18 19 20 21 22 23 24 25 26 27 28 29 30 31 32 33 34 35 36 37 38 39 40 41 42 43 44 45 46 47 48 49 50

070
ASUS41 KOKX 011508
RWROKX

REGIONAL WEATHER ROUNDUP
NATIONAL WEATHER SERVICE NEW YORK NY
1100 AM EDT SAT OCT 01 2016

NOTE: "FAIR" INDICATES FEW OR NO CLOUDS BELOW 12,000 FEET WITH NO
SIGNIFICANT WEATHER AND/OR OBSTRUCTIONS TO VISIBILITY.

NYZ071-072-176-178-NJZ106-104-011600-
NEW YORK CITY METRO AREA

CITY           SKY/WX    TMP DP  RH WIND       PRES   REMARKS
Central Park   CLOUDY    60  54  80 VRB5      30.24S
LaGuardia APRT CLOUDY    63  57  81 NE18      30.21F
Kennedy INTL   CLOUDY    61  56  83 NE13      30.22R
Newark/Liberty CLOUDY    61  57  87 NE12      30.21F
Bronx Bot Gard   N/A     59  54  82 W6        30.23F
Wall St Helipt CLOUDY    63  59  88 NE10G21   30.22R
Teterboro      DRIZZLE   60  56  86 NE7       30.21F
$$

NYZ177-179-078>081-011600-
LONG ISLAND NEW YORK

CITY           SKY/WX    TMP DP  RH WIND       PRES   REMARKS
Farmingdale    CLOUDY    60  57  89 NE13G22   30.20S
MacArthur/ISP  CLOUDY    59  58  96 N10       30.20S FOG
Shirley        CLOUDY    61  60  97 VRB7      30.20F FOG
Riverhead      NOT AVBL
Westhampton    CLOUDY    62  58  86 NE18G25   30.21S
Southampton      N/A     63  59  88 E10       30.17R
Bridgehampton    N/A     61  59  94 E5        30.05S
East Hampton   CLOUDY    61  58  89 NE15G22   30.20S
Montauk          N/A     63  60  90 NE13G24   30.21S
$$

NYZ052-065-067-011600-
HUDSON VALLEY

CITY           SKY/WX    TMP DP  RH WIND       PRES   REMARKS
White Plains   CLOUDY    59  54  83 NE12      30.22S
Newburgh       DRIZZLE   55  55 100 NE9       30.27F FOG
Montgomery     LGT RAIN  56  54  93 NE10      30.25F FOG
Poughkeepsie   CLOUDY    53  52  96 N8        30.25F FOG
Albany         CLOUDY    55  49  80 NE3       30.30F
$$

NJZ001-105-106-008-010-013-015-019>022-104-011600-
NEW JERSEY

CITY           SKY/WX    TMP DP  RH WIND       PRES   REMARKS
Newark/Liberty CLOUDY    61  57  87 NE12      30.21F
Teterboro      DRIZZLE   60  56  86 NE7       30.21F
Caldwell       CLOUDY    59  56  89 E7        30.23S FOG
Morristown     CLOUDY    57  55  94 NE8       30.23S FOG
Somerville     CLOUDY    60  54  80 NE7       30.20S
Linden         NOT AVBL
Sussex         CLOUDY    55  54  96 NE9       30.24F
Abdover          N/A     54  53  97 VRB5      30.24R
Trenton        CLOUDY    58  56  93 NE9       30.20S
Millville      CLOUDY    65  65 100 E13       30.15F
Atlantic City  CLOUDY    65  63  93 NE16G24   30.17R
Wrightstown    CLOUDY    61  59  95 NE14      30.16F
Toms River     CLOUDY    62  61  96 NE16      30.19F
Belmar         CLOUDY    61  58  90 NE16      30.20S
$$

PAZ047>061-062-071-011600-
EASTERN PENNSYLVANIA

CITY           SKY/WX    TMP DP  RH WIND       PRES   REMARKS
Philadelphia   CLOUDY    61  57  87 NE14      30.19S
Allentown      CLOUDY    58  53  84 E12       30.21F
Scranton       CLOUDY    60  54  80 NE10G17   30.20F
$$

CTZ002-004>006-009-010-012-RIZ004-006-007-MAZ004-011-015-011600-
SOUTHERN NEW ENGLAND
 IN CT

CITY           SKY/WX    TMP DP  RH WIND       PRES   REMARKS
Bradley INTL   DRIZZLE   52  50  93 N15       30.29F FOG
Hartford       LGT RAIN  52  52 100 N12G18    30.27F FOG
Danbury        CLOUDY    56  54  93 NE12G17   30.24F FOG
Wtrbury/Oxford DRIZZLE   54  50  87 NE12G17   30.25S FOG
Bridgeport     CLOUDY    60  53  77 NE14G22   30.22F
Meriden        CLOUDY    55  51  86 N8        30.25F FOG
New Haven      CLOUDY    55  52  89 N16       30.23F
Chester        CLOUDY    57  57 100 N8        30.23F FOG
Groton         CLOUDY    64  58  80 NE16G25   30.21S
Wilimantic     CLOUDY    59  56  89 NE9G17    30.26S

 IN RI

CITY           SKY/WX    TMP DP  RH WIND       PRES   REMARKS
Providence     LGT RAIN  60  58  92 NE12      30.25F FOG
Block Island   CLOUDY    61  60  97 NE17G24   30.21R
Westerly       CLOUDY    62  56  80 NE13G22   30.22S
 IN MA

CITY           SKY/WX    TMP DP  RH WIND       PRES   REMARKS
Boston         CLOUDY    57  57 100 NE16      30.29S FOG
Worcester      LGT RAIN  50  49  96 NE14G24   30.29S VSB 1/2
Westfield      CLOUDY    51  50  96 N14       30.30F FOG
Provincetown   LGT RAIN  59  58  96 NE16      30.25F FOG
Nantucket      LGT RAIN  63  61  93 E16       30.17S FOG
$$

ANZ330-335-338-340-345-350-353-355-011600-
COASTAL MARINE OBSERVATIONS


STATION/POSITION TIME  SKY/WX   TEMP    WIND        PRES    VSBY  WAVE
                                AIR SEA DIR/SP/G                  HT/PER
                 (UTC)          (F)     (DEG/KT/KT) (MB)    (MI)  (FT/S)
NY HARB ENTRANCE 1350            61 68   30/ 17/ 21 1021.7          6/ 8
20S FIRE ISLAND  1350            63 67   40/ 21/ 25 1020.8          8/ 8
GREAT SOUTH BAY  1430            60 63   10/ 10/ 16   N/A
23 SSW MONTAUK P 1350            62 65   40/ 25/ 29 1021.5          8/ 6
15 E BARNEGAT LI 1430               69                N/A           8/ 8
HUDSON CANYON    1350            68 71              1020.2          7/ 8
KINGS POINT      1436            59 67              1022.8
EXECUTION ROCKS  1445            61      40/ 16/ 21   N/A
CENTRAL LI SOUND NOT AVBL
EASTERN LI SOUND NOT AVBL
ROBBINS REEF     1436            60      40/ 14/ 19 1023.0
$$


>>>>>>>>>>>>>>>>>>>>>>>>>>>> KEY <<<<<<<<<<<<<<<<<<<<<<<<<<<
>                                                          <
>     SKY/WX - Sky Condition/Present Weather               <
>     TMP    - Temperature in Fahrenheit                   <
>     DP     - Dew Point in Fahrenheit                     <
>     RH     - Relative Humidity in Percent                <
>     WIND   - Direction (from) and Speed in MPH           <
>     PRES   - Mean Sea Level Pressure (inches of Hg)      <
>     WCI    - Wind Chill Index                            <
>     VSB    - VISIBILITY IN MILES                         <
>     HX     - HEAT INDEX                                  <
>     TC     - TEMPERATURE IN CELSIUS                      <
>     VRB    - VARIABLE WIND DIRECTION                     <
>                                                          <
>>>>>>>>>>>>>>>>>>>>>>>>>>>> KEY <<<<<<<<<<<<<<<<<<<<<<<<<<<




USA.gov is the U.S. government's official web portal to all federal, state and local government web resources and services.